Content
SEND FEEDBACK

Daily
Averages
Monthly
Summary
China

MACAU, CHINA


Home > Asia > China
Elevation: 194 feet     Latitude: 22 12N     Longitude: 113 31E

WEATHER
 
SELECT A DAY
Number of Records: 253,495;   Date Range: 7/1/96 - 7/9/14
 
SHARE

PRINT THIS DATA

[ ← Previous Day ]
WEATHER ALMANAC - JANUARY 31, 2013
[ Next Day → ]
[ °C ]   °F
Weather ElementAverageHighLow
Temperature65.4 °F70 °F (2:00 pm)62 °F (2:00 am)
Dewpoint56.9 °F59 °F (12:30 am)54 °F (8:00 am)
Humidity73.4 %85 % (2:00 am)49 % (2:00 pm)
Barometer30.15 in30.21 in (11:00 am)30.12 in (3:30 am)
Wind Speed9.7 mph17.3 mph (6:30 am)
Weather ElementAverage
Visibility5.1 mi
Wind DirectionESE (101.5 °)

Weather ElementTotal
Precipitation---
Cooling Degree Days1 (Base 65)
Growing Degree Days16 (Base 50)
Averaged from 54 records on January 31, 2013
WEATHER CONDITIONS BREAKOUT
WIND DIRECTION BREAKOUT
WEATHER BY HOUR - JANUARY 31, 2013
[ °C ]   °F
Local TimeTemperatureDewpointHumidityBarometerVisibilityWind DirectionWind SpeedGust SpeedPrecipitationEventsConditions
12:30 AM64.4 °F59.0 °F83 %30.15 in6.2 miEast (90°)9.2 mphPartly Cloudy
1:00 AM64.4 °F59.0 °F83 %30.15 in5.6 miEast (80°)8.1 mphPartly Cloudy
1:30 AM64.4 °F59.0 °F83 %30.15 in5.6 miEast (90°)10.4 mphPartly Cloudy
2:00 AM62.0 °F59.0 °F85 %30.17 in3.0 miESE (110°)5.8 mphMist
2:00 AM64.4 °F59.0 °F83 %30.15 in5.0 miEast (100°)9.2 mphScattered Clouds
2:30 AM64.4 °F59.0 °F83 %30.15 in5.6 miEast (100°)6.9 mphScattered Clouds
3:00 AM64.4 °F59.0 °F83 %30.15 in5.6 miEast (100°)6.9 mphScattered Clouds
3:30 AM64.4 °F59.0 °F83 %30.12 in5.6 miEast (80°)9.2 mphScattered Clouds
4:00 AM64.4 °F59.0 °F83 %30.12 in5.6 miENE (60°)8.1 mphScattered Clouds
4:30 AM64.4 °F59.0 °F83 %30.12 in5.6 miNE (50°)5.8 mphPartly Cloudy
5:00 AM62.0 °F58.0 °F83 %30.14 in4.0 miEast (100°)8.1 mphMist
5:00 AM64.4 °F59.0 °F83 %30.12 in5.6 miENE (70°)9.2 mphPartly Cloudy
5:30 AM64.4 °F59.0 °F83 %30.12 in5.6 miEast (80°)10.4 mphPartly Cloudy
6:00 AM64.4 °F57.2 °F77 %30.12 in5.6 miEast (80°)12.7 mphPartly Cloudy
6:30 AM64.4 °F57.2 °F77 %30.12 in6.2 miEast (80°)17.3 mphPartly Cloudy
7:00 AM64.4 °F55.4 °F73 %30.15 in5.0 miEast (80°)12.7 mphPartly Cloudy
7:30 AM64.4 °F55.4 °F73 %30.15 in5.0 miEast (80°)11.5 mphPartly Cloudy
8:00 AM63.0 °F54.0 °F66 %30.19 in4.0 miEast (100°)8.1 mphMist
8:00 AM64.4 °F57.2 °F77 %30.15 in5.0 miEast (90°)11.5 mphPartly Cloudy
8:30 AM64.4 °F55.4 °F73 %30.15 in5.0 miEast (90°)13.8 mphPartly Cloudy
9:00 AM66.2 °F55.4 °F68 %30.18 in5.6 miEast (80°)11.5 mphPartly Cloudy
9:30 AM66.2 °F55.4 °F68 %30.18 in5.0 miEast (90°)15.0 mph
10:00 AM66.2 °F55.4 °F68 %30.18 in5.0 miEast (80°)12.7 mphPartly Cloudy
10:30 AM66.2 °F55.4 °F68 %30.18 in5.0 miEast (90°)12.7 mphPartly Cloudy
11:00 AM69.0 °F55.0 °F52 %30.21 in4.0 miEast (80°)6.9 mphMist
11:00 AM68.0 °F55.4 °F64 %30.18 in5.0 miEast (80°)12.7 mphPartly Cloudy
11:30 AM68.0 °F55.4 °F64 %30.18 in5.0 miEast (80°)5.8 mphPartly Cloudy
12:00 PM68.0 °F57.2 °F68 %30.18 in5.0 miEast (80°)8.1 mphPartly Cloudy
12:30 PM68.0 °F55.4 °F64 %30.15 in4.3 miEast (90°)9.2 mphPartly Cloudy
1:00 PM68.0 °F57.2 °F68 %30.15 in4.3 miEast (90°)9.2 mphPartly Cloudy
1:30 PM68.0 °F57.2 °F68 %30.15 in5.0 miEast (100°)6.9 mphPartly Cloudy
2:00 PM70.0 °F55.0 °F49 %30.15 in4.0 miESE (110°)5.8 mphMist
2:00 PM68.0 °F57.2 °F68 %30.12 in5.0 miEast (90°)5.8 mphPartly Cloudy
2:30 PM68.0 °F55.4 °F64 %30.12 in5.0 miESE (110°)6.9 mphPartly Cloudy
3:00 PM66.2 °F57.2 °F73 %30.12 in5.0 miSE (130°)9.2 mphPartly Cloudy
3:30 PM66.2 °F57.2 °F73 %30.12 in5.0 miESE (120°)9.2 mphPartly Cloudy
4:00 PM66.2 °F57.2 °F73 %30.12 in5.0 miSE (130°)10.4 mphPartly Cloudy
4:30 PM66.2 °F57.2 °F73 %30.12 in5.0 miESE (120°)9.2 mphPartly Cloudy
5:00 PM67.0 °F55.0 °F57 %30.15 in4.0 miSSE (150°)4.6 mphMist
5:00 PM66.2 °F57.2 °F73 %30.12 in5.0 miSE (130°)6.9 mphPartly Cloudy
5:30 PM66.2 °F55.4 °F68 %30.12 in5.0 miSE (130°)8.1 mphPartly Cloudy
6:00 PM64.4 °F57.2 °F77 %30.15 in4.3 miSE (140°)3.5 mphPartly Cloudy
6:30 PM64.4 °F57.2 °F77 %30.15 in4.3 miESE (120°)10.4 mphPartly Cloudy
7:00 PM66.2 °F55.4 °F68 %30.15 in5.6 miESE (110°)11.5 mphPartly Cloudy
7:30 PM66.2 °F55.4 °F68 %30.15 in6.2 miSE (130°)13.8 mphPartly Cloudy
8:00 PM66.2 °F55.4 °F68 %30.15 in6.2 miESE (110°)10.4 mphPartly Cloudy
8:30 PM64.4 °F57.2 °F77 %30.15 in6.2 miSE (130°)8.1 mphPartly Cloudy
9:00 PM64.4 °F57.2 °F77 %30.15 inSE (130°)11.5 mphClear
9:30 PM64.4 °F55.4 °F73 %30.15 inESE (120°)15.0 mphClear
10:00 PM64.4 °F57.2 °F77 %30.15 inESE (120°)12.7 mphClear
10:30 PM64.4 °F57.2 °F77 %30.15 inESE (120°)13.8 mphClear
11:00 PM62.0 °F56.0 °F77 %30.15 in4.0 miSSE (160°)6.9 mphMist
11:00 PM64.4 °F57.2 °F77 %30.12 inESE (110°)16.1 mphClear
11:30 PM64.4 °F59.0 °F83 %30.12 inESE (110°)10.4 mphClear
Hourly data recorded from VMMC, located miles away from Macau, China







STORIES FROM OUR PARTNERS